Theta_e
310 310 311 315 319 322 326 328 330 330 330 330 329 329 328 328 329 328 328 328 326 323 321 319 318 317 316 317 317 318 320 319 319 320 321 320 320 321 321 321 323 322 318 317 317 319 324 323 322 323 327 326 320 317 314 317 322 324 331 330 324 326 326 324 323 320 318 319 318 315 316 321 322 316 313 312 320 327 324 328 330 326 326 325 325 327 328 332
309 310 310 311 315 320 324 327 330 330 330 330 329 328 328 328 328 328 328 327 324 322 319 318 318 318 316 316 317 317 319 319 321 323 322 319 318 320 321 321 324 324 319 317 318 320 328 329 322 325 334 331 318 317 318 315 320 329 329 325 328 332 326 322 322 320 317 315 317 316 315 318 320 318 315 314 321 325 324 327 330 331 329 327 326 328 331 333
309 310 310 310 313 317 321 325 329 330 330 330 328 328 327 327 328 327 327 326 325 323 320 318 317 316 316 316 317 318 321 322 324 324 322 320 320 322 323 324 325 324 322 320 320 319 327 329 321 326 336 335 323 321 322 316 318 324 322 323 331 331 322 319 320 320 317 314 317 316 313 314 316 316 314 317 324 325 324 324 327 331 333 335 330 327 331 333
311 310 310 311 312 314 317 322 326 329 330 329 328 328 327 327 326 326 326 326 325 324 322 320 318 317 317 318 319 321 322 324 325 323 323 322 323 325 325 326 323 318 320 320 319 319 322 323 320 326 334 337 331 325 321 317 317 317 319 325 325 321 318 318 320 320 318 314 314 317 314 314 314 314 314 318 323 324 323 321 323 327 332 338 330 327 332 333
312 310 310 311 312 312 313 317 322 328 329 328 328 328 327 327 326 326 325 325 324 323 321 320 319 318 318 320 322 323 322 325 326 321 322 322 322 324 324 325 322 316 316 317 317 318 321 319 321 327 331 333 331 330 328 317 314 315 316 321 320 317 315 316 318 318 317 313 314 317 315 314 313 313 316 319 319 320 320 320 323 322 327 337 331 327 331 332
311 310 311 312 313 312 312 315 320 325 328 328 328 328 327 327 326 326 325 324 323 322 321 319 318 318 320 322 323 322 322 326 324 320 322 321 322 323 321 323 323 321 318 316 316 318 320 319 322 326 329 330 329 334 333 317 312 317 315 315 317 316 313 314 315 314 314 314 316 317 314 313 314 314 316 318 318 317 315 316 316 315 322 330 329 328 332 332
312 312 314 316 316 314 313 316 319 323 327 328 328 327 327 326 326 326 325 324 323 321 320 319 318 319 322 323 323 322 323 324 321 320 322 321 322 322 321 321 321 323 321 316 316 319 321 322 325 326 327 329 327 329 327 317 315 318 316 315 313 312 313 313 312 313 313 314 315 313 311 313 317 316 313 315 317 314 315 312 310 312 320 326 328 329 331 332
315 316 317 318 317 315 314 315 317 320 323 325 327 327 326 326 325 325 324 324 322 320 319 318 319 320 323 323 323 325 324 323 320 321 321 321 323 321 321 321 321 323 319 316 316 318 321 323 325 324 325 328 325 323 320 319 320 318 319 320 315 312 314 313 312 313 313 313 312 310 312 315 316 313 311 315 316 313 319 320 318 319 324 328 329 330 330 331
315 315 315 315 314 313 314 314 314 315 317 320 324 327 327 325 325 325 324 324 322 321 319 319 319 321 324 322 323 326 324 321 321 322 322 322 323 321 321 321 322 322 316 315 316 316 320 322 323 323 325 326 323 321 318 323 327 323 321 322 317 315 314 312 313 314 313 313 311 312 316 315 312 311 314 315 314 317 328 334 331 328 331 330 329 329 329 331
313 311 311 312 312 311 311 312 312 312 314 317 319 324 327 325 325 324 323 322 321 320 320 319 321 322 324 323 323 326 324 321 321 322 323 323 323 323 322 321 322 319 314 314 314 316 319 320 320 321 325 326 322 320 319 325 328 322 319 317 314 316 315 312 313 313 313 313 312 314 317 315 309 311 317 314 313 321 334 341 333 333 338 331 329 329 328 330
311 309 308 309 310 310 310 311 311 311 312 314 316 320 326 326 324 324 322 321 320 320 320 321 322 323 323 323 324 324 322 322 322 322 323 323 325 325 323 322 321 317 314 314 315 315 317 318 317 319 324 324 321 320 320 321 318 314 316 315 315 317 316 314 314 313 312 312 313 314 314 313 309 312 318 312 313 319 333 343 332 332 336 328 328 329 327 329
308 307 306 307 307 308 308 310 310 311 310 311 313 316 322 326 323 323 322 321 320 320 321 322 323 323 323 324 324 322 322 322 322 322 323 324 326 326 323 322 322 318 315 315 315 316 317 317 319 324 324 321 322 321 319 317 312 311 314 318 320 319 318 317 315 313 312 312 314 313 313 314 311 314 315 312 316 321 333 347 336 329 330 327 328 327 327 328
305 306 306 306 307 307 308 309 309 309 309 311 313 314 319 325 324 323 323 322 322 321 322 323 323 323 323 325 323 322 323 322 322 322 324 325 325 324 322 322 323 320 318 318 317 318 318 317 320 323 321 322 324 321 318 315 312 311 313 318 321 321 322 320 315 313 313 313 314 312 314 320 317 316 312 313 322 325 330 345 339 331 327 326 328 327 327 326
307 306 306 306 306 307 307 307 308 308 310 311 312 312 315 322 325 324 323 322 322 322 323 323 323 323 324 324 322 322 323 321 323 324 324 326 323 318 317 317 317 316 318 319 318 318 317 317 319 317 317 321 321 316 316 318 319 316 314 317 319 324 329 323 315 315 316 313 312 311 313 319 318 317 312 314 323 323 323 336 339 336 329 325 328 327 327 325
310 307 306 305 305 306 306 307 307 309 313 312 312 312 313 319 324 324 323 323 322 323 322 323 323 323 326 325 320 322 323 323 324 325 325 326 321 314 312 313 313 314 315 315 316 315 316 317 318 318 316 315 316 318 319 321 325 322 321 323 319 323 328 322 315 316 319 313 310 312 314 316 315 316 311 311 320 321 319 326 333 337 333 327 327 326 327 326
311 310 307 306 305 305 306 308 308 311 314 313 313 313 312 315 322 324 323 322 322 323 322 323 323 323 327 326 321 322 324 324 324 324 324 325 322 313 310 313 312 313 314 314 315 314 316 316 316 317 316 316 319 322 321 321 323 321 324 329 323 320 322 320 316 313 315 314 310 312 315 316 316 314 309 309 320 323 319 320 323 327 328 325 325 325 326 326
312 311 309 307 306 306 308 309 309 310 312 311 311 313 312 313 320 325 323 323 324 323 322 322 321 323 325 321 320 324 323 323 323 322 321 323 323 314 310 312 310 312 313 312 314 314 314 314 313 315 317 320 321 321 325 326 324 321 320 324 321 318 318 319 319 313 312 312 311 312 312 314 315 314 311 311 320 326 324 321 319 319 322 323 323 323 324 325
311 312 310 309 307 306 309 309 308 308 309 309 310 312 314 312 317 324 325 323 323 321 322 321 320 325 326 318 320 324 322 323 324 321 320 320 320 314 311 311 309 311 312 312 315 314 314 314 315 319 319 319 318 321 330 329 326 324 319 320 319 317 315 317 319 314 311 312 312 312 311 312 313 313 312 313 319 324 324 322 320 317 318 320 322 322 322 322
309 311 311 311 310 308 309 309 308 307 307 309 310 311 315 314 315 323 324 322 322 323 324 323 322 327 326 320 320 322 321 323 324 322 320 317 315 313 311 311 311 313 314 315 315 314 315 316 318 321 320 318 317 321 328 326 326 323 319 321 323 320 317 315 316 312 310 313 314 314 313 312 312 312 311 313 316 319 319 318 317 315 314 314 317 319 319 320
307 308 308 309 310 311 310 308 306 307 306 308 310 313 317 318 318 320 321 321 323 324 325 324 322 322 321 320 320 320 322 323 322 321 319 314 312 313 312 312 314 315 315 317 316 314 316 318 318 320 320 318 318 320 321 320 320 319 318 322 322 322 320 315 313 311 310 313 316 315 313 312 312 312 311 311 312 314 315 315 315 315 314 312 312 313 314 316
307 307 308 307 308 310 311 308 304 306 308 307 310 316 318 318 318 317 319 324 323 320 323 323 320 319 318 319 319 320 322 322 320 318 317 313 312 315 316 314 316 316 315 316 315 313 316 319 319 319 318 316 317 318 316 314 315 317 319 321 320 321 321 317 313 312 310 312 315 313 311 312 312 312 311 310 310 311 312 313 313 314 314 312 310 311 310 310
307 307 308 308 308 308 308 308 304 304 308 309 311 315 315 315 316 314 315 323 323 318 320 322 320 320 318 318 320 321 323 323 320 318 315 313 314 317 317 315 317 316 313 314 314 314 317 319 318 317 316 315 316 318 316 315 317 320 320 320 320 318 319 317 312 312 311 311 316 315 311 311 311 311 311 309 309 310 310 310 311 312 313 312 312 312 310 308
306 306 307 308 309 309 307 306 304 304 307 310 312 314 314 314 314 313 312 317 323 319 319 322 321 319 318 318 321 322 324 324 323 319 315 314 316 318 317 315 316 314 312 314 315 316 318 318 317 314 313 314 316 317 317 317 318 320 319 320 320 316 318 319 313 312 311 310 313 315 312 311 310 310 311 311 309 309 311 310 310 310 311 311 311 312 310 309
305 305 305 307 308 309 309 306 304 305 307 309 313 314 314 314 313 312 310 310 318 319 319 321 318 318 318 318 320 322 324 324 323 319 315 315 318 318 316 315 315 313 313 315 315 316 318 315 313 313 314 315 316 317 318 318 318 317 319 322 320 315 316 318 315 313 314 312 311 314 314 315 317 315 314 313 310 308 309 309 309 310 309 309 309 310 310 310
305 305 305 306 307 309 310 308 306 306 307 309 311 312 313 313 311 311 310 309 315 318 318 318 317 318 317 318 320 321 323 323 321 318 314 316 319 318 318 317 315 314 314 315 315 318 318 313 312 314 314 315 317 317 318 320 319 317 320 321 318 317 316 315 317 319 319 317 313 313 317 323 324 319 316 318 314 311 310 308 309 310 308 308 309 309 309 309
305 305 305 306 307 308 309 310 309 306 307 309 310 310 311 312 310 309 310 312 316 318 319 319 319 320 318 318 319 320 325 322 316 315 314 316 317 319 322 322 318 315 313 314 316 319 317 311 312 315 314 316 318 316 317 319 320 320 321 319 317 318 318 317 320 323 322 318 312 310 315 321 320 315 315 318 316 313 311 309 310 310 309 309 309 309 309 308
304 304 305 305 306 309 309 310 309 306 307 309 308 309 311 311 309 308 311 315 317 318 320 320 320 320 319 318 318 321 327 322 315 315 314 314 316 317 322 323 320 316 312 316 321 318 313 310 313 314 314 316 317 316 317 316 319 324 321 318 318 317 318 319 320 321 320 317 315 314 314 315 315 314 313 314 314 314 312 311 311 311 311 311 309 308 309 308
303 304 304 305 307 309 309 310 309 308 308 307 307 309 311 310 308 309 313 318 319 318 320 319 317 317 317 318 318 321 322 320 320 319 313 311 313 316 322 323 320 315 311 318 325 316 311 312 314 314 314 315 315 317 317 315 320 326 319 315 318 317 319 321 319 319 317 315 317 317 313 314 318 319 316 313 313 314 313 313 314 313 314 316 314 311 308 308
303 303 304 304 306 308 309 310 309 308 307 306 307 308 310 310 309 311 314 318 319 318 319 318 316 316 317 318 318 318 318 320 322 318 312 313 313 313 319 321 317 314 312 319 324 315 310 312 311 313 315 315 316 316 316 316 319 319 315 315 318 319 321 319 318 317 315 316 319 318 316 316 319 320 317 313 313 314 314 314 314 314 314 315 315 312 308 307
303 304 304 304 306 308 308 309 309 309 307 306 308 309 309 310 311 313 316 317 319 318 317 318 318 318 319 320 319 318 319 319 317 315 314 316 316 314 314 315 316 315 314 318 319 312 309 309 310 313 314 314 314 313 313 316 315 313 315 316 317 321 322 320 321 319 316 319 320 318 318 315 317 320 317 313 314 315 314 314 314 314 314 314 314 312 310 310
303 304 305 305 306 307 308 308 309 310 309 308 308 309 311 310 311 316 317 317 319 319 317 318 319 319 320 322 321 320 319 317 315 316 317 317 317 318 316 315 317 318 317 318 317 311 308 309 310 311 312 312 311 310 312 314 312 314 320 318 316 319 319 320 322 319 319 321 318 316 315 313 316 320 315 312 313 313 312 314 316 316 317 316 314 314 314 315
303 304 305 305 305 306 307 308 308 308 309 309 308 309 311 311 312 316 318 318 320 318 317 318 319 320 321 321 322 320 319 318 317 317 318 318 317 318 319 319 318 321 321 320 319 314 311 312 312 310 310 311 312 312 313 313 311 315 319 317 317 318 316 319 320 317 320 320 314 312 312 311 314 316 313 313 313 313 312 311 314 315 314 314 311 312 314 314
303 303 304 305 305 305 306 308 308 307 308 309 308 308 310 312 313 315 316 318 319 318 317 318 319 320 321 322 321 319 319 320 319 318 317 318 318 317 319 319 319 324 325 321 317 316 316 316 313 310 310 311 313 312 313 313 312 314 314 315 321 320 317 318 318 316 320 319 312 310 311 313 317 316 314 314 312 313 313 310 311 311 310 310 309 309 311 311
302 302 303 304 305 305 305 306 308 308 309 309 308 308 309 312 315 316 316 315 316 317 318 318 319 320 321 322 320 319 320 320 319 319 318 318 318 318 318 318 318 321 322 320 318 318 321 319 314 312 313 312 311 312 314 315 312 312 315 317 322 323 321 322 320 319 322 319 310 308 312 320 324 319 314 313 312 313 314 313 313 312 310 309 308 309 310 308
303 303 303 303 304 304 304 305 306 308 309 309 309 309 309 312 315 317 316 314 314 316 317 318 319 321 322 321 319 317 319 320 320 319 319 319 319 318 318 318 317 317 320 322 321 320 321 318 312 311 311 309 310 311 313 314 311 312 315 317 318 320 323 322 319 319 322 320 313 310 315 321 321 317 313 311 312 313 314 314 314 315 314 311 313 316 313 309
302 303 303 303 303 303 303 304 306 307 308 308 309 309 310 312 314 316 316 314 314 315 317 319 319 321 321 319 319 318 317 319 320 320 320 320 319 319 318 317 315 315 320 322 320 320 322 317 311 310 309 308 312 312 311 315 315 312 313 315 314 316 322 321 314 312 314 317 317 313 315 317 315 315 314 312 312 312 312 312 312 314 315 316 320 322 316 311
302 302 302 302 303 303 303 304 305 307 308 307 308 309 310 312 312 313 315 315 314 315 317 319 320 320 319 318 319 318 318 319 320 320 321 321 320 319 317 317 315 313 317 320 320 320 320 315 310 312 311 308 312 314 311 314 314 312 314 315 312 312 319 322 317 313 313 317 319 314 313 315 315 318 319 315 313 314 313 313 311 312 316 318 321 320 317 314
301 301 301 302 301 302 303 303 305 307 307 307 308 308 310 311 311 312 314 315 315 315 317 320 320 318 318 319 319 317 319 321 320 320 321 321 321 318 316 317 315 313 313 317 320 318 318 317 311 310 312 310 310 312 312 311 309 313 317 315 313 317 319 318 318 318 316 317 320 319 314 312 312 316 318 315 314 316 315 313 312 311 313 317 319 320 319 317
300 300 300 300 300 301 302 304 305 306 306 307 308 308 309 310 311 313 314 315 315 315 316 319 319 317 317 319 319 317 320 321 320 320 321 321 321 317 316 318 316 312 311 315 318 315 317 321 315 310 311 312 311 311 313 313 309 310 314 311 312 318 318 316 316 317 318 317 319 322 319 317 315 314 314 313 312 314 312 313 313 312 312 315 317 320 321 320
299 300 300 300 300 300 302 304 305 305 306 307 307 308 309 309 309 312 315 315 315 316 317 317 317 317 317 318 318 318 320 320 319 320 321 321 320 316 315 316 315 312 310 313 317 315 313 319 318 311 309 311 314 313 313 313 311 310 312 311 310 312 314 316 315 314 319 320 320 321 321 322 321 314 312 314 313 313 314 314 315 314 314 318 319 320 321 319
299 300 301 301 299 301 303 304 304 304 305 307 307 308 309 308 308 311 313 314 314 316 317 316 316 318 318 318 318 318 319 319 318 320 321 320 318 317 316 315 313 311 309 312 315 315 314 315 316 314 311 312 314 313 313 314 312 311 312 312 311 312 313 315 314 312 314 318 321 320 316 320 322 314 311 314 315 315 315 313 313 314 316 321 322 321 320 318
299 300 301 301 300 302 304 303 304 305 306 307 307 308 308 308 308 310 311 313 313 314 315 316 317 318 318 319 318 318 319 318 318 320 320 320 319 317 315 313 311 309 310 313 312 313 316 315 314 314 313 315 314 309 310 314 313 311 313 312 312 312 312 316 320 316 312 312 316 316 315 319 321 314 312 316 316 315 314 310 309 314 319 323 325 325 323 320
299 300 301 301 301 302 303 303 304 305 305 306 307 308 309 309 309 310 311 312 313 314 314 316 317 317 318 318 317 318 318 318 319 319 319 319 318 317 314 311 310 309 311 314 311 312 316 316 314 314 313 315 316 311 309 311 311 311 313 313 312 313 315 322 327 321 314 313 313 313 315 317 317 314 313 315 315 311 310 310 312 317 323 326 328 328 325 323
299 300 301 301 301 302 303 303 304 304 305 306 306 307 309 309 309 311 312 312 313 314 314 315 317 317 317 317 317 318 319 319 320 318 318 319 316 314 313 310 309 310 311 313 312 314 318 316 314 315 315 316 318 315 313 311 310 313 316 314 312 315 317 318 317 313 312 316 315 314 316 313 314 317 314 312 313 311 310 313 316 319 323 327 330 329 325 325
300 300 301 302 302 302 303 303 303 304 305 306 306 307 308 309 309 310 312 312 312 314 315 316 317 317 317 317 317 317 319 320 320 317 317 317 313 311 312 311 310 310 312 316 315 316 319 316 314 316 317 317 317 316 316 314 311 313 317 315 312 313 312 312 314 313 312 314 314 314 315 310 309 314 312 310 312 313 313 315 315 315 319 325 327 328 327 328
300 300 301 302 301 302 303 303 303 304 304 305 306 307 308 308 309 310 312 312 312 313 315 316 318 318 317 317 317 317 318 319 319 317 315 314 311 310 311 311 310 311 317 322 318 316 318 315 313 316 316 316 317 317 317 316 313 313 314 313 311 311 310 312 318 317 313 313 313 313 313 310 309 311 312 313 315 317 318 318 315 315 319 323 323 326 328 327
300 300 301 302 302 302 303 304 304 304 304 305 306 307 308 308 309 310 311 312 312 313 315 316 317 317 317 317 316 317 318 317 317 317 314 313 312 310 310 311 312 314 320 319 314 317 319 314 313 316 315 316 322 322 318 315 314 314 313 312 311 310 311 313 316 315 314 315 314 312 312 312 313 313 316 318 318 318 320 322 323 321 322 325 323 325 327 325
299 301 302 303 303 303 304 304 304 304 304 305 306 307 308 309 309 311 311 311 312 313 314 315 316 317 317 317 317 318 318 317 317 317 315 312 311 311 310 311 313 316 318 315 311 314 317 314 314 315 315 318 323 321 317 316 315 314 313 312 311 311 311 313 314 313 314 314 314 316 315 313 312 314 317 319 318 319 319 320 319 317 318 322 321 322 323 323
299 300 302 303 303 304 304 304 304 305 305 306 306 307 308 309 309 310 311 312 313 313 314 314 315 316 317 317 317 318 317 317 317 317 315 312 311 311 311 312 313 314 313 313 312 313 315 317 315 313 314 316 317 315 314 315 315 314 314 312 311 311 311 312 312 312 312 313 314 317 316 312 312 313 315 318 318 316 315 312 311 313 317 321 320 320 321 322
298 299 300 302 303 304 304 304 304 305 305 306 307 307 308 309 309 310 311 312 312 313 313 314 314 316 317 316 317 317 317 317 318 317 315 313 312 312 313 313 313 312 312 312 312 312 315 317 314 313 314 312 311 312 312 313 315 314 313 312 311 311 311 311 311 311 312 312 311 314 314 312 314 315 316 316 313 310 310 311 313 315 318 320 320 318 319 320
298 299 300 301 302 303 304 305 305 305 305 306 307 307 308 308 309 309 311 312 312 313 313 313 314 315 316 316 317 317 316 316 317 316 315 313 313 313 314 313 312 312 313 313 312 312 314 315 312 312 315 311 309 311 313 313 314 312 312 313 312 312 312 311 311 311 312 312 311 312 313 311 313 316 316 313 311 312 314 317 317 316 316 317 317 316 317 318
297 298 299 300 301 302 304 305 306 306 306 306 307 307 308 309 309 309 311 312 312 313 313 313 314 315 316 316 317 317 316 316 316 316 314 313 312 314 315 314 312 312 313 313 313 312 314 314 312 313 316 311 308 311 313 314 314 312 312 313 312 311 311 311 312 312 311 311 311 311 312 312 311 314 314 313 313 315 318 319 318 316 315 314 312 313 314 313
Wind_Speed
25 21 17 17 15 16 24 36 43 43 44 45 44 44 42 42 41 39 39 37 35 34 34 34 34 34 33 30 28 26 22 19 19 17 14 20 26 18 13 13 9 8 7 7 7 7 7 7 5 6 4 3 4 2 2 2 2 3 2 2 1 2 3 5 6 6 3 0 1 1 3 5 2 2 1 0 3 3 1 2 2 2 3 5 5 3 5 19
27 27 24 23 20 15 18 28 40 44 46 47 45 45 44 43 42 41 40 39 36 35 36 35 34 34 32 28 25 22 19 19 17 16 18 21 24 20 18 18 14 12 10 9 10 11 9 4 5 8 5 2 3 3 1 1 2 3 3 2 3 4 4 4 5 5 2 1 1 2 1 4 4 4 3 2 2 1 2 3 2 3 4 4 3 4 14 22
20 20 20 21 20 15 15 22 34 42 46 47 46 45 45 44 44 43 41 40 38 36 36 35 35 33 31 27 23 21 18 14 10 13 22 21 19 19 19 18 16 16 12 10 11 10 9 9 11 9 4 2 1 3 2 2 1 1 3 2 4 4 3 2 3 5 2 0 1 3 1 3 4 4 3 3 2 2 6 5 2 4 7 4 3 11 18 21
17 16 13 13 16 14 13 16 26 38 44 44 46 45 45 46 44 43 42 41 39 37 36 35 34 32 30 26 24 24 16 6 4 14 23 23 20 20 20 18 16 17 15 13 13 9 11 16 12 6 4 2 3 3 2 2 0 1 3 3 3 3 1 1 4 4 2 1 0 1 1 2 3 3 2 5 4 4 8 7 8 10 9 7 6 13 19 20
17 17 12 9 12 13 12 10 16 32 45 45 45 46 45 45 45 43 42 42 40 38 37 35 34 31 28 27 25 24 15 3 7 17 23 25 24 23 20 17 16 16 16 14 13 12 16 16 9 5 4 2 2 2 0 2 1 2 1 2 3 3 2 1 3 3 1 2 2 1 1 2 1 2 3 7 6 6 6 6 9 9 8 9 10 15 18 18
17 16 14 10 8 11 11 8 8 22 41 49 48 47 46 45 44 45 43 43 41 38 39 37 34 31 29 28 27 24 14 1 4 14 23 27 27 26 23 20 17 16 15 13 14 16 13 9 5 4 3 2 3 2 1 2 1 2 0 1 1 2 1 1 2 2 3 4 3 2 2 1 2 3 2 7 9 5 3 5 7 7 10 14 14 17 16 16
18 17 15 10 7 7 10 8 6 13 28 44 50 46 46 46 45 44 44 43 42 40 39 37 35 32 31 30 25 18 8 4 2 7 18 28 29 28 26 23 19 18 16 14 16 12 8 6 4 5 4 3 4 3 2 1 2 3 1 0 2 3 2 2 1 2 3 4 4 2 1 2 3 3 1 6 10 4 2 4 4 5 12 16 15 17 17 19
21 21 20 15 11 8 8 6 5 8 12 26 43 47 46 46 46 44 45 44 41 41 39 38 37 34 35 30 18 9 5 7 5 3 12 26 30 29 27 23 21 21 20 18 18 12 7 8 5 4 3 2 4 4 4 2 2 1 3 2 3 3 4 3 1 2 3 4 2 1 2 4 5 3 0 7 9 5 2 2 4 7 11 12 13 16 16 18
22 21 18 16 12 8 6 5 3 5 4 7 25 44 48 45 47 46 45 45 42 42 40 39 38 36 36 26 11 6 10 14 7 5 10 25 29 30 28 24 24 24 22 20 20 17 10 6 6 5 4 2 5 5 6 5 1 4 5 3 2 2 4 2 2 0 2 3 1 3 4 5 3 1 3 8 6 3 2 5 4 7 8 8 10 14 15 15
20 14 10 12 11 6 5 7 5 5 5 2 5 27 48 47 45 46 45 45 44 42 42 41 39 39 33 20 9 6 14 18 10 2 10 24 27 29 28 26 27 25 22 19 18 17 9 7 7 5 5 3 3 3 4 6 2 4 5 3 4 3 2 1 2 1 1 3 4 5 4 4 2 0 4 5 2 1 4 4 2 6 7 9 8 10 14 15
18 10 10 12 14 14 11 10 7 6 7 4 5 7 36 48 45 46 45 44 45 43 43 42 40 39 29 17 10 7 10 16 15 6 10 23 28 29 30 28 28 26 22 16 15 16 9 10 13 6 2 2 3 3 2 5 4 3 5 2 4 4 3 2 2 2 2 1 5 5 2 2 2 0 5 3 3 2 6 3 3 5 6 7 7 7 10 13
19 15 15 16 16 17 16 12 8 7 10 8 6 7 17 44 46 44 46 44 45 45 43 43 40 36 24 11 9 7 7 13 16 12 12 22 28 27 27 27 26 24 22 15 15 18 11 13 16 6 2 4 5 3 2 3 4 3 4 2 4 5 4 5 3 1 2 1 5 3 2 3 2 6 7 2 1 3 6 4 4 5 5 4 6 5 7 11
18 16 17 16 15 14 13 12 8 5 10 11 7 10 5 34 47 42 46 45 44 47 44 42 39 33 20 6 8 10 7 12 17 16 18 24 25 23 24 24 23 22 22 19 18 19 14 15 16 6 2 6 3 2 2 3 3 3 3 1 2 4 4 5 3 4 1 1 4 2 3 4 6 10 7 1 2 5 4 5 5 5 5 4 4 5 6 9
18 16 15 14 14 13 9 7 6 2 5 9 8 9 8 19 45 44 43 45 43 46 43 41 39 29 14 4 7 13 10 13 18 21 23 27 24 20 20 22 21 20 19 18 18 16 15 15 14 8 3 3 2 1 4 4 2 3 2 0 1 1 4 5 1 5 4 2 4 3 4 5 8 10 6 2 3 5 6 6 5 5 5 5 4 5 6 9
18 17 15 12 10 11 7 4 6 5 3 4 6 11 10 7 40 46 41 45 42 43 43 39 36 21 7 2 5 13 14 13 19 25 26 28 26 19 18 20 17 15 14 13 15 15 16 16 11 6 1 1 3 4 4 2 3 2 2 2 2 3 4 5 1 5 5 2 4 4 3 5 8 8 4 1 2 4 6 6 5 6 6 6 5 6 7 8
18 19 17 14 10 9 8 6 7 6 3 4 2 7 8 7 30 49 43 44 41 42 41 31 27 18 5 4 8 14 13 10 18 25 26 29 28 20 20 20 14 13 13 12 17 17 15 12 5 2 3 3 3 5 4 3 3 1 3 3 2 3 2 3 1 1 2 1 3 5 4 3 5 5 4 2 3 4 5 7 6 5 6 5 5 6 6 6
17 19 19 16 11 8 9 7 7 6 2 4 2 3 5 10 19 46 44 41 41 41 36 26 23 14 3 5 10 12 9 9 19 25 24 26 28 26 22 15 11 14 14 13 16 13 7 5 2 1 3 2 3 5 4 1 2 3 3 2 1 3 3 1 2 3 2 1 3 5 5 5 7 7 4 2 3 5 5 7 6 5 5 5 5 5 6 6
16 16 18 17 14 10 9 8 6 7 2 4 3 2 5 9 8 36 42 37 35 29 21 18 20 8 3 9 10 11 14 17 24 26 23 22 27 29 21 12 11 15 13 7 7 4 2 3 2 2 2 2 4 5 5 4 5 5 5 4 1 2 3 3 3 1 1 0 2 2 3 6 10 12 8 3 4 5 6 6 5 5 6 5 5 6 7 7
16 13 14 14 15 12 10 9 6 5 3 4 4 1 2 6 4 22 35 32 23 16 10 13 16 6 4 12 10 14 22 25 25 22 20 21 25 25 19 15 12 12 10 4 2 1 2 3 3 4 4 5 7 8 7 4 5 8 7 5 4 3 2 3 4 3 2 2 3 5 4 6 8 11 11 5 3 4 6 4 4 5 5 5 6 6 7 8
14 13 11 10 12 12 10 9 6 4 3 3 4 3 1 1 2 5 15 20 15 8 6 15 16 4 8 12 14 19 23 21 15 13 20 24 25 20 11 11 8 5 7 8 5 2 3 4 4 6 8 10 10 7 5 4 6 9 7 5 5 5 3 4 3 3 2 2 3 5 5 7 8 10 13 7 1 4 6 5 6 6 5 6 7 8 9 9
13 12 10 8 10 11 10 10 7 3 3 3 4 4 2 1 3 2 1 11 16 2 3 15 13 4 7 15 23 26 16 9 7 9 22 24 23 18 5 6 9 5 5 7 6 2 3 6 7 7 9 9 8 6 7 6 7 7 7 5 3 4 4 5 3 3 1 2 3 2 2 7 8 9 12 8 4 6 8 7 8 8 7 6 6 9 10 9
12 11 9 8 8 10 11 11 10 6 5 6 5 3 2 3 4 3 5 5 17 4 4 15 13 5 7 18 29 33 15 5 6 8 21 21 16 13 6 7 10 7 6 7 6 4 2 5 8 7 6 7 6 6 8 6 6 5 5 6 4 3 2 4 3 3 2 1 2 2 2 7 9 9 10 10 7 8 9 9 9 9 8 7 8 10 9 8
10 10 9 8 8 10 11 13 13 10 9 8 6 5 5 5 6 5 6 3 10 5 1 15 15 6 10 11 20 29 17 10 11 11 19 20 12 10 10 11 10 8 9 10 8 7 4 5 7 7 7 9 6 4 8 6 4 3 5 6 3 3 2 2 2 4 2 1 2 3 3 6 7 7 9 10 7 8 9 9 9 8 8 10 9 7 7 8
9 10 8 8 9 9 11 15 15 13 13 10 8 10 9 9 10 8 4 4 3 5 4 11 11 9 12 10 16 20 12 8 10 13 17 17 11 9 11 13 12 9 9 11 11 9 4 2 6 9 8 10 8 4 7 6 2 1 4 6 4 4 4 2 0 3 3 3 3 4 5 5 4 5 8 7 3 5 7 6 8 8 9 10 8 7 8 10
9 9 9 9 9 10 13 15 15 15 15 9 7 9 6 6 12 14 7 3 3 2 4 7 4 6 13 13 15 12 7 3 2 11 16 14 12 10 8 7 8 11 12 11 10 7 3 2 8 12 7 8 8 6 6 6 5 2 4 6 7 7 5 3 3 4 4 3 3 4 3 5 4 4 7 5 4 5 5 4 9 10 8 8 7 10 11 10
9 8 10 10 9 13 13 9 12 17 13 6 7 9 6 2 8 13 8 2 2 2 7 11 6 13 17 11 11 10 9 4 1 11 17 11 10 7 8 4 1 9 13 9 5 3 2 3 8 12 9 9 8 6 7 7 6 2 5 7 7 7 7 5 4 4 2 2 2 3 1 5 5 6 9 6 6 9 7 6 9 9 8 7 8 10 10 10
8 7 9 10 10 15 10 5 14 18 9 5 9 8 5 6 7 12 5 3 3 3 7 8 5 16 18 11 15 12 9 8 4 8 10 6 7 4 9 9 2 7 9 6 4 2 4 6 6 10 10 9 7 6 7 9 7 3 5 8 8 7 7 6 6 3 2 1 3 2 2 3 6 7 8 5 6 11 10 9 9 8 9 9 9 10 10 11
7 6 7 8 11 13 8 10 18 14 7 8 13 9 9 16 15 11 4 2 1 3 4 3 4 13 12 11 16 8 6 14 11 5 3 5 5 2 8 13 11 12 9 8 7 1 4 10 11 13 10 7 7 6 7 10 6 5 6 8 7 7 6 5 6 3 1 2 3 3 2 2 6 6 4 2 6 11 10 9 10 9 10 10 10 11 10 10
7 6 5 6 11 13 10 12 13 11 13 14 13 12 14 21 16 6 1 3 2 2 1 3 7 11 11 11 9 3 7 10 6 4 4 5 3 2 5 9 12 15 8 4 6 1 1 7 12 14 10 7 5 5 9 11 5 3 4 6 4 4 5 4 4 3 1 1 3 4 2 2 6 5 2 1 5 9 7 7 9 9 9 9 9 9 7 6
6 4 4 5 9 12 12 8 7 14 22 18 14 18 18 14 8 3 4 3 2 2 1 3 7 12 17 15 6 6 11 6 4 8 4 2 4 5 3 5 7 11 5 4 5 1 1 1 4 7 6 5 6 4 5 8 6 5 7 7 6 5 4 3 2 3 1 3 5 6 6 4 4 4 4 4 4 6 7 6 8 8 8 8 8 7 6 5
6 3 3 5 7 10 9 6 8 15 23 24 20 19 16 5 1 4 5 2 2 3 2 3 8 15 22 19 9 10 12 6 8 13 6 3 2 2 7 6 4 5 5 3 3 2 4 4 2 2 2 5 8 4 4 3 4 6 5 5 5 3 3 3 3 2 1 5 4 3 4 5 6 6 3 4 5 4 6 6 7 8 8 8 6 5 5 5
7 4 3 4 5 8 7 6 12 14 18 28 22 11 7 3 3 4 3 2 1 3 4 5 10 17 21 19 12 11 11 8 12 16 12 10 6 6 10 9 7 6 5 8 5 3 3 1 2 1 1 4 8 5 4 4 1 4 5 6 5 2 1 1 1 1 4 5 2 2 3 3 7 7 5 8 10 9 8 8 8 9 9 8 5 4 6 5
9 7 4 5 5 6 6 7 14 16 13 21 17 5 2 3 4 5 3 2 1 2 5 8 11 17 21 18 11 11 11 8 12 16 14 11 10 8 3 2 9 6 4 10 7 4 1 4 2 3 1 3 9 8 4 1 4 5 6 6 5 4 4 4 3 1 3 5 2 2 2 3 5 4 7 11 12 10 7 7 8 7 8 9 7 6 8 8
10 9 7 8 7 7 8 5 10 18 16 13 9 4 5 4 2 6 6 3 1 2 5 10 12 15 18 14 11 12 9 7 14 15 14 11 9 9 3 4 9 4 5 9 5 7 8 3 5 7 3 5 10 8 6 6 6 5 4 5 4 4 5 5 4 2 4 3 1 1 2 3 2 3 6 9 9 9 7 7 8 7 8 7 6 7 9 10
10 10 10 9 9 10 10 7 8 17 18 9 3 3 6 5 2 4 6 3 1 2 4 9 12 14 12 9 10 10 2 5 14 12 12 13 10 12 10 10 13 6 8 11 4 5 9 3 3 1 1 8 9 5 6 8 5 2 2 4 3 4 5 3 3 5 4 1 1 2 4 4 3 6 8 7 8 8 8 8 7 9 8 4 5 8 8 8
8 9 9 9 10 13 12 9 11 17 15 6 4 4 3 3 1 1 4 4 3 6 7 8 11 10 7 6 11 9 2 2 12 9 8 12 11 12 12 10 12 10 10 11 5 3 6 1 3 4 1 7 7 7 7 6 5 2 2 4 4 3 6 5 1 0 3 1 2 2 4 5 3 6 8 6 7 8 9 9 7 8 8 6 7 8 7 7
5 5 5 7 12 14 13 11 13 16 11 5 6 5 2 2 1 1 3 3 3 7 10 9 8 5 5 5 8 11 7 5 8 6 5 9 8 11 11 8 11 14 11 7 3 3 6 3 3 2 3 2 1 6 4 1 4 6 4 6 3 2 3 4 1 2 3 2 4 2 5 5 2 4 5 4 5 7 9 9 7 6 6 6 8 8 8 7
3 2 3 9 16 16 12 13 16 13 6 3 7 8 3 1 3 3 2 3 5 6 7 6 5 3 6 8 9 14 16 12 9 8 7 7 5 12 16 11 12 16 9 3 3 3 5 4 3 1 4 1 3 4 3 3 2 4 5 5 4 2 2 2 3 1 1 2 4 4 4 4 5 6 5 4 7 9 10 10 8 7 7 6 7 8 8 7
3 1 3 10 19 20 16 16 15 8 3 3 8 8 4 2 5 5 3 3 6 6 6 5 2 3 6 9 12 16 17 15 13 10 9 8 4 12 20 11 10 17 10 3 5 4 4 5 1 3 1 2 2 2 7 3 2 3 4 4 2 2 4 3 3 3 3 3 3 3 4 3 6 6 7 10 12 11 11 10 9 9 8 6 6 7 7 6
4 1 2 8 18 24 22 16 10 5 3 5 7 5 6 6 6 6 5 5 4 5 7 6 3 4 7 8 10 13 12 14 15 10 8 10 5 8 18 12 10 17 9 3 5 6 3 4 4 0 1 3 2 4 9 9 5 4 5 6 4 2 2 2 1 2 4 4 3 2 4 5 6 4 9 12 11 11 11 11 10 8 5 5 6 6 6 6
3 3 2 12 23 28 22 11 5 5 3 6 6 4 6 5 5 7 7 6 5 3 4 6 6 5 6 8 8 9 8 10 14 9 4 9 7 5 14 15 13 16 11 5 6 7 3 3 6 5 2 5 4 3 5 8 8 8 7 8 9 6 4 3 3 1 2 2 4 3 4 8 5 5 8 9 9 11 10 8 7 6 5 5 6 6 5 5
3 4 5 19 31 30 18 6 4 5 4 6 7 6 6 5 6 10 9 8 8 6 1 5 9 7 5 7 8 9 9 9 13 12 6 12 13 7 11 14 14 17 13 6 4 3 3 5 6 4 4 5 3 2 3 4 3 4 5 5 7 6 5 5 4 3 1 2 2 3 2 8 6 7 8 9 9 8 4 3 2 5 6 6 6 6 5 5
4 5 7 25 39 29 11 5 7 6 5 6 8 8 8 7 7 10 10 10 9 6 4 4 8 8 6 5 6 8 10 8 11 13 6 8 10 6 10 16 17 16 12 6 5 4 3 5 5 3 1 2 4 2 2 2 1 3 5 3 6 5 4 5 5 4 4 4 3 3 3 7 5 4 6 7 6 3 1 3 4 5 6 5 6 6 5 5
4 3 2 20 39 29 8 5 8 8 8 8 9 10 9 7 8 10 12 13 10 7 7 7 7 9 7 6 8 11 12 7 8 10 4 4 5 4 14 22 20 18 12 8 9 7 3 4 5 5 4 2 4 3 2 2 4 4 3 3 5 6 7 4 2 4 3 7 9 6 6 6 3 3 4 7 6 5 6 6 6 5 5 5 5 5 5 6
3 3 0 11 25 20 7 7 9 8 11 12 11 13 12 8 8 11 12 13 12 10 9 7 8 10 8 9 10 12 13 8 6 8 4 4 2 1 12 22 21 17 10 7 9 6 3 5 7 8 9 8 8 7 6 5 4 1 3 6 8 9 11 7 4 3 6 7 10 9 8 3 2 4 5 6 6 6 8 6 4 6 6 5 5 5 5 5
3 4 3 5 9 9 6 8 9 8 11 13 10 12 15 11 9 12 14 12 12 13 11 7 8 9 9 13 12 11 14 7 4 6 5 6 3 2 11 20 18 15 10 12 13 7 3 5 7 10 13 13 11 7 5 9 8 6 7 10 10 10 12 9 5 5 7 5 7 16 12 2 3 6 6 6 7 7 7 5 5 5 5 5 6 6 5 5
4 4 5 6 5 7 6 6 8 8 10 13 9 9 16 17 11 11 13 12 11 13 12 7 8 10 11 15 12 11 16 8 5 9 9 6 2 1 9 16 15 15 13 13 13 7 4 6 9 12 14 8 4 5 8 12 13 13 12 11 11 11 12 12 11 12 7 7 9 15 11 9 9 8 9 9 8 7 7 7 7 6 5 5 5 5 7 7
5 4 5 7 6 7 9 10 12 13 15 15 10 10 17 21 17 13 12 11 11 13 11 6 10 14 15 19 14 11 15 10 6 11 11 8 5 5 6 9 10 15 14 9 9 7 5 8 10 12 10 3 6 6 10 12 12 12 14 15 14 14 16 18 21 17 11 9 13 7 11 17 14 8 10 10 8 9 8 7 6 4 4 4 4 6 8 7
5 3 3 6 6 7 12 16 18 19 20 16 11 12 18 22 22 16 10 10 12 14 13 9 11 14 16 17 14 11 15 13 10 12 12 11 11 10 9 6 5 10 14 11 8 6 5 8 9 11 7 4 5 3 7 9 9 11 14 17 17 18 21 23 27 22 14 16 14 3 4 15 10 8 11 9 7 7 3 1 2 3 5 6 6 8 8 7
4 3 4 5 6 8 11 14 18 17 17 16 13 14 17 21 25 20 12 13 14 14 16 16 14 16 18 19 16 14 18 21 19 19 19 18 16 12 12 11 8 9 11 11 8 6 7 7 7 9 6 2 3 2 4 5 8 10 11 13 16 19 23 26 25 15 10 18 15 3 8 14 7 8 10 6 2 2 0 2 3 6 7 7 8 8 8 8
9 7 8 6 7 11 11 11 14 14 13 14 13 14 17 22 26 22 14 15 16 16 19 22 20 16 17 20 20 18 22 26 23 20 20 18 14 9 6 7 12 14 12 10 7 5 7 4 5 7 7 4 2 4 7 6 6 4 7 13 20 22 21 20 15 9 12 20 15 8 14 13 7 8 8 4 4 5 5 6 6 7 8 8 9 9 9 10
12 10 11 8 7 12 13 10 13 14 12 13 15 16 18 21 25 24 15 12 17 19 19 23 22 15 14 21 27 26 24 22 16 11 10 9 8 7 6 8 13 16 14 9 5 4 6 4 4 7 8 4 2 6 9 8 7 2 12 20 24 21 15 11 10 14 20 18 11 12 15 8 8 11 9 6 6 6 7 8 8 9 9 9 9 10 10 11
Wind_Direction
237 239 248 257 248 220 210 207 206 202 197 196 195 194 194 192 191 192 193 196 195 192 191 190 191 191 190 189 191 191 193 193 196 202 207 223 226 226 242 244 219 182 161 151 145 129 88 61 60 57 54 35 10 346 17 15 66 60 90 104 218 181 203 188 177 193 164 319 281 241 174 158 207 232 190 53 39 53 119 278 285 293 263 243 269 319 156 166
233 237 242 252 256 239 218 206 205 204 197 195 195 193 192 191 191 191 192 194 194 193 191 189 188 188 188 187 187 187 187 189 191 201 212 222 225 229 235 232 215 194 173 157 151 135 112 86 102 81 51 42 358 335 20 4 57 87 118 140 219 194 210 205 176 186 152 37 248 300 196 181 198 176 153 191 258 43 179 255 323 310 259 249 271 154 155 162
218 227 231 236 246 248 230 208 202 203 196 192 193 192 191 190 190 191 191 192 193 194 192 190 189 188 189 187 183 183 177 173 182 211 213 208 211 209 202 202 198 192 182 173 172 154 150 161 138 106 52 52 24 337 24 18 13 136 130 161 229 207 225 239 188 199 216 309 309 321 81 189 222 172 156 188 199 187 208 223 187 234 229 204 172 153 157 161
197 208 210 218 233 246 241 218 203 201 197 192 191 191 191 190 189 190 190 191 191 192 191 188 188 187 186 181 178 177 161 132 208 221 208 194 192 190 184 183 176 177 178 175 181 173 153 145 129 102 80 66 349 2 43 357 4 128 139 177 212 183 141 209 205 223 240 178 88 322 134 239 238 178 170 157 159 234 230 220 200 214 205 181 172 163 164 166
189 199 201 208 227 242 250 241 213 203 200 196 192 191 189 189 190 190 189 190 190 190 188 185 184 182 178 175 175 167 143 91 228 217 211 199 195 197 193 187 174 173 176 175 171 149 139 134 112 72 78 88 3 34 309 311 79 115 144 152 179 160 97 151 210 216 181 106 113 132 222 254 159 172 170 162 196 236 227 217 211 214 185 171 170 166 168 171
182 186 196 205 211 234 250 252 224 203 200 196 192 190 189 189 189 189 189 189 188 188 186 184 183 180 176 174 173 165 154 173 203 198 207 204 201 202 202 198 187 182 184 178 158 139 132 123 105 108 92 101 153 170 211 298 66 132 207 35 198 179 121 179 196 201 147 110 163 206 239 105 106 253 182 181 217 219 223 235 224 218 173 163 160 161 169 176
169 168 175 177 164 204 235 235 217 204 197 193 190 188 187 188 188 188 188 187 187 187 184 184 182 178 174 169 168 170 181 234 173 172 196 200 200 197 199 202 199 193 191 172 150 140 135 128 123 132 109 103 169 187 177 255 30 87 181 192 177 182 200 208 169 193 174 179 217 232 246 147 179 235 97 215 228 205 274 280 225 191 158 154 157 167 178 182
162 161 161 161 150 157 193 206 202 205 200 192 190 189 187 187 188 187 187 186 185 185 183 182 180 176 173 166 162 170 212 214 175 139 184 189 194 196 198 200 200 195 188 176 160 149 143 142 148 143 119 127 170 167 155 157 16 26 209 195 161 191 241 259 267 216 210 235 250 103 239 233 204 177 122 242 236 222 246 53 109 135 141 155 167 178 183 186
160 154 155 157 154 149 178 205 218 223 237 194 191 192 189 186 187 186 185 184 183 183 182 180 179 177 173 165 149 167 204 199 159 76 166 179 187 194 197 192 191 190 180 177 170 161 156 158 171 164 147 157 160 157 159 155 221 221 196 206 205 231 261 306 359 169 203 254 197 163 261 281 245 179 262 253 240 221 133 82 106 127 146 175 177 184 186 187
163 155 166 169 174 199 239 249 259 279 268 240 187 192 189 186 185 185 183 181 181 181 180 179 177 174 170 160 147 177 205 203 191 107 158 174 180 185 190 187 185 182 172 169 169 167 168 168 165 155 131 125 150 140 161 167 187 197 169 204 237 268 286 76 22 330 235 254 200 198 262 293 309 334 258 274 299 196 115 97 151 150 170 188 187 194 191 193
184 203 224 216 219 230 251 265 261 279 272 256 349 205 188 185 183 182 181 179 179 178 178 178 174 171 166 158 166 188 199 200 205 201 166 175 179 179 183 183 182 178 168 165 174 177 173 160 147 123 130 133 123 110 200 183 134 142 141 162 270 299 288 237 296 316 21 287 200 184 255 298 1 264 231 271 335 159 140 144 194 185 197 194 194 199 196 204
194 211 226 230 228 226 236 252 252 255 270 272 313 325 191 184 182 181 181 178 177 177 176 175 174 169 161 159 188 191 180 189 199 197 177 178 179 179 181 180 182 182 173 170 185 188 184 166 146 112 193 150 122 140 210 173 108 105 123 151 287 330 291 241 219 125 55 277 188 158 300 284 231 227 234 269 339 115 135 176 210 213 220 207 207 203 206 212
186 197 211 215 212 211 221 238 246 242 259 269 281 321 245 183 182 180 180 179 177 176 174 174 172 165 158 166 196 185 170 172 186 185 176 180 176 174 180 181 185 189 186 185 189 190 193 181 156 119 123 128 130 192 130 89 86 112 107 148 276 352 298 246 181 135 139 217 152 143 276 269 245 242 247 247 131 119 141 207 212 219 225 215 214 209 217 213
183 190 199 200 199 201 208 224 217 178 244 262 256 274 302 187 183 181 179 179 177 176 173 171 168 164 164 164 176 184 176 161 173 174 172 176 168 161 171 175 180 184 187 188 183 184 187 170 141 107 82 112 155 159 69 45 53 130 104 48 189 220 275 285 228 152 189 216 117 137 251 271 268 264 264 225 163 154 193 225 218 218 222 217 212 211 223 217
180 185 187 181 176 185 188 175 173 149 174 227 250 250 297 217 185 181 180 179 178 176 170 167 167 161 156 185 176 175 164 154 168 170 171 172 160 150 160 162 164 169 174 179 171 167 163 146 117 104 115 26 105 99 68 42 33 86 151 254 216 195 261 308 301 169 197 213 120 152 235 272 265 270 296 277 172 189 222 235 230 225 223 219 214 213 221 226
180 182 181 172 152 157 170 149 157 160 164 181 249 246 287 297 188 181 180 178 177 174 165 163 169 161 150 176 162 162 156 155 169 167 168 172 165 153 150 148 137 141 150 153 151 146 139 128 96 109 116 60 107 110 84 62 15 337 192 219 222 177 240 304 326 264 253 219 157 182 219 281 271 261 300 320 164 175 238 254 250 243 239 230 227 224 225 231
179 180 178 173 159 146 161 156 163 170 158 185 216 239 267 314 190 179 178 175 171 168 163 163 164 155 130 145 150 165 162 148 162 163 162 171 170 156 144 134 117 119 121 126 137 132 109 92 74 111 83 77 139 125 99 129 230 246 196 189 190 156 173 228 278 326 359 292 208 191 204 247 275 273 275 288 157 158 220 252 258 254 248 239 238 241 236 232
172 176 175 175 171 161 166 161 163 174 145 145 162 217 239 311 210 178 173 165 158 154 156 158 154 154 223 182 167 162 154 148 156 160 160 166 167 159 148 130 120 117 109 109 122 104 46 40 72 115 82 107 158 159 163 195 195 182 175 166 166 158 154 187 232 263 80 126 220 211 232 243 267 278 267 233 159 176 214 237 253 251 245 241 236 238 237 233
169 171 169 170 168 167 175 172 160 174 171 138 141 123 232 313 278 182 167 154 152 156 159 164 165 177 180 168 154 139 149 150 151 156 156 156 156 150 141 130 125 122 124 138 137 130 117 77 87 145 162 176 186 185 174 178 155 153 166 155 149 164 192 219 233 248 204 154 224 228 234 240 255 273 274 262 165 209 242 250 255 252 248 244 236 236 238 233
171 173 172 166 161 157 157 166 165 164 174 150 125 76 59 340 349 206 169 157 177 182 156 172 171 124 89 126 128 127 138 138 134 153 156 153 146 133 122 124 115 117 145 151 159 168 124 136 177 179 184 188 189 177 141 130 129 134 140 131 148 173 223 247 238 261 225 165 248 234 219 240 248 260 269 268 191 246 265 262 255 253 247 241 236 240 238 234
165 166 167 167 165 160 145 150 168 180 181 157 130 100 76 139 109 325 194 174 195 220 56 168 158 62 104 132 136 132 125 111 92 145 157 153 143 134 137 149 140 153 155 135 133 109 107 165 200 200 189 179 168 143 116 110 112 122 138 136 148 179 220 243 231 279 314 147 256 293 270 257 251 256 268 270 256 259 256 249 253 250 246 243 238 243 242 243
161 158 153 154 158 165 155 150 168 191 186 158 143 119 67 51 73 33 17 183 197 218 1 169 152 42 116 138 146 142 127 110 112 153 163 157 152 155 171 164 156 158 144 127 121 121 146 206 212 200 169 138 129 124 113 113 114 112 130 133 156 183 235 266 262 317 8 140 263 342 323 272 262 260 268 267 253 252 248 240 243 244 247 245 236 240 244 251
161 157 151 153 149 159 159 158 171 188 189 171 146 118 79 55 32 6 6 347 199 190 312 176 160 118 129 145 161 151 143 155 156 175 173 163 166 171 160 159 159 146 152 160 157 155 172 232 207 166 131 131 137 123 108 102 103 112 132 141 182 191 179 221 259 316 356 46 309 326 305 276 270 268 266 261 245 246 253 247 247 244 241 244 243 243 240 240
157 154 154 154 152 157 156 161 171 182 192 190 157 128 95 63 39 42 60 358 240 191 192 174 158 145 148 156 172 162 154 156 153 167 176 170 160 157 161 158 149 149 173 171 161 160 167 248 154 132 139 149 150 154 131 117 121 176 168 158 175 184 172 168 252 325 2 21 15 2 318 280 264 262 257 267 284 261 263 269 264 253 239 247 265 265 241 234
151 152 155 154 159 162 156 160 166 175 188 194 183 169 135 68 47 63 86 337 292 195 170 162 147 160 156 150 163 162 132 110 126 157 172 177 155 146 164 158 148 167 175 157 150 165 194 222 141 133 153 152 146 176 172 149 150 209 227 180 170 167 145 94 45 35 42 352 354 39 329 279 298 287 258 274 313 279 273 273 262 258 248 243 255 257 245 240
150 151 157 160 163 161 159 160 164 173 182 184 196 200 190 165 55 72 84 333 277 219 170 164 166 167 162 153 152 139 133 153 327 149 160 175 166 150 155 150 70 167 162 144 146 178 173 173 147 145 155 148 147 186 196 171 146 201 231 176 150 138 126 110 79 71 105 240 287 71 166 264 303 286 261 270 286 279 277 268 260 263 263 242 233 246 246 244
151 150 160 168 165 162 163 157 162 169 173 177 186 180 159 162 101 85 90 305 255 209 169 161 177 170 167 165 154 145 152 153 107 148 158 161 173 176 162 161 137 157 158 138 165 204 127 132 143 146 148 151 166 194 199 172 147 218 219 159 139 133 142 142 106 106 196 243 328 21 127 253 284 258 250 257 266 274 276 273 267 257 257 250 238 240 240 242
150 141 155 168 171 172 161 148 160 162 143 157 178 172 138 142 124 92 100 260 181 152 165 158 157 158 154 157 156 144 137 138 131 162 135 102 144 192 174 173 159 155 163 160 176 228 114 151 165 154 154 176 182 177 165 151 156 238 205 154 151 143 142 135 107 133 205 43 318 309 97 253 270 257 268 274 243 260 269 271 269 257 252 253 246 241 239 246
155 138 149 167 176 183 174 159 156 150 150 153 167 181 153 133 122 95 159 215 123 105 196 152 145 143 136 146 157 127 127 136 133 146 110 89 78 35 165 169 149 149 155 143 157 195 141 177 171 157 167 189 162 141 155 156 174 226 146 100 82 87 85 87 105 129 81 28 240 225 155 244 270 253 244 258 231 245 255 260 261 256 252 252 256 257 255 264
171 143 141 157 173 187 191 185 153 145 160 162 155 163 155 128 116 143 187 195 133 126 191 156 157 151 145 147 157 153 141 125 111 124 113 73 34 22 106 101 112 143 143 57 95 178 331 102 153 156 172 166 120 97 148 156 147 123 104 73 57 48 43 55 66 83 67 284 237 201 179 189 279 264 207 221 228 222 229 247 260 261 262 255 255 262 265 268
204 183 157 164 178 186 186 191 180 156 155 162 159 151 146 136 185 177 183 191 91 135 174 167 159 154 154 154 155 155 139 113 137 137 130 137 66 60 132 111 84 126 136 118 93 2 40 92 167 205 152 124 106 76 33 68 114 104 99 101 88 40 23 36 6 46 179 254 251 201 160 165 236 256 233 258 284 252 222 229 248 255 262 260 256 266 269 262
222 219 199 202 197 189 178 167 192 187 151 150 155 146 138 169 226 205 179 128 132 178 160 158 166 160 159 158 152 152 141 132 156 153 151 156 150 165 162 160 160 140 163 178 153 44 50 109 231 319 323 138 122 113 32 16 64 100 108 124 111 88 93 148 265 212 222 255 251 156 126 200 241 257 262 263 266 255 227 219 238 254 268 278 288 289 274 262
223 227 229 235 232 210 193 153 179 200 171 144 142 136 167 185 204 206 190 135 138 162 143 160 177 166 160 159 153 150 142 146 164 158 154 152 152 172 195 176 161 145 167 168 144 128 125 317 263 156 277 191 151 152 148 179 194 159 146 153 143 131 149 198 225 249 251 260 259 166 177 265 283 277 241 241 250 257 245 233 243 253 262 273 285 284 278 273
223 225 231 239 245 239 223 186 175 184 172 151 142 151 183 204 194 175 183 193 53 62 141 163 176 172 164 159 152 149 140 157 166 157 151 148 153 173 203 235 189 136 115 152 155 165 166 250 215 176 200 186 168 169 151 138 163 175 151 141 154 154 157 187 194 191 226 249 295 266 210 211 234 260 229 224 247 271 271 256 258 259 249 249 266 270 270 270
223 223 231 239 245 243 232 233 201 174 159 149 164 178 187 202 200 165 175 177 129 117 148 164 172 173 166 150 151 155 118 159 161 153 158 161 166 175 175 195 195 160 137 161 176 174 169 208 248 221 182 162 161 170 128 112 137 197 128 124 189 191 145 143 177 171 174 220 259 218 232 217 211 274 270 244 246 259 260 259 269 277 279 287 277 265 259 263
216 222 230 233 238 240 229 225 204 175 155 144 192 213 215 201 213 181 165 148 157 155 149 172 184 175 161 147 157 162 23 134 160 157 169 167 169 180 179 186 189 177 168 162 142 164 169 185 332 2 102 164 166 170 158 146 160 153 143 183 208 163 119 113 195 117 98 216 256 211 249 282 312 286 279 274 273 269 265 265 255 256 275 289 274 269 270 268
202 220 224 219 227 233 225 214 197 176 158 152 197 212 228 214 237 221 153 121 136 157 156 174 192 184 159 146 157 159 134 127 162 163 166 167 173 183 182 188 190 190 191 166 138 192 154 108 336 37 133 214 207 138 127 62 139 136 182 198 160 96 89 104 154 3 46 237 273 245 241 273 294 269 297 342 319 288 272 271 266 249 251 258 261 268 276 271
174 187 234 224 222 225 218 200 186 173 149 145 207 214 194 170 207 208 190 123 125 162 179 182 183 191 179 162 159 164 157 157 170 162 159 178 191 179 178 187 191 192 200 144 123 190 135 108 322 324 142 259 354 114 122 352 72 137 181 180 136 151 212 130 154 168 122 218 272 290 278 258 209 227 274 295 289 286 277 275 280 268 249 249 262 270 278 285
153 93 262 222 215 217 207 188 176 168 137 165 206 211 182 181 206 203 214 178 151 166 200 215 182 187 206 181 161 166 170 169 168 162 168 186 202 180 180 185 183 187 193 142 146 171 124 118 218 295 182 148 36 161 184 189 42 68 135 156 131 146 174 167 164 163 158 187 248 304 321 264 221 209 208 230 251 262 266 272 272 263 248 240 255 266 276 283
151 195 241 181 195 203 192 175 169 172 185 197 205 194 174 193 207 209 228 216 188 176 195 221 210 175 199 188 162 169 172 163 166 175 181 177 169 179 185 185 175 178 177 97 141 158 119 122 150 185 312 171 187 220 189 171 155 141 150 173 185 152 128 160 176 139 134 155 189 278 294 259 241 203 189 210 230 233 238 249 257 266 260 240 248 255 265 277
146 226 192 158 176 182 173 164 176 186 204 216 212 192 180 184 184 206 232 234 235 245 194 199 204 186 182 174 169 174 159 152 168 178 178 177 173 184 191 185 167 165 159 120 153 166 144 129 141 146 176 183 215 252 184 170 176 175 176 190 188 169 132 154 212 220 99 151 173 178 266 263 240 191 189 201 216 224 225 230 255 288 290 260 259 254 253 273
179 231 173 163 170 166 159 169 188 186 213 215 205 190 184 186 179 194 211 218 233 258 276 196 199 202 198 176 172 170 156 156 174 178 187 193 191 194 187 172 154 162 165 144 149 158 105 108 120 140 188 198 237 257 166 177 192 186 207 199 173 168 153 153 196 213 151 198 155 113 269 273 243 191 191 200 210 219 206 163 228 281 278 268 277 283 281 278
215 222 157 163 166 159 156 195 180 191 224 213 210 199 186 195 193 187 193 202 217 233 245 222 188 192 215 186 165 169 161 160 181 185 182 188 194 194 165 154 148 161 167 144 147 160 122 117 107 91 82 296 314 349 73 78 110 217 237 174 149 180 164 142 174 171 163 196 152 106 259 264 250 208 208 223 233 254 255 161 180 240 270 275 278 292 300 289
215 217 147 172 171 163 162 199 178 195 213 208 217 209 196 205 199 190 193 196 201 208 223 225 186 186 203 177 170 181 175 169 194 197 175 160 193 177 157 156 156 167 179 172 169 173 147 137 132 119 104 7 332 335 303 221 193 210 210 142 166 164 123 117 141 118 190 207 168 168 237 241 256 296 263 256 275 291 266 226 189 212 257 273 275 287 289 284
210 195 203 191 182 173 178 197 182 192 204 202 208 206 202 209 204 200 200 197 200 204 214 223 195 183 179 171 177 190 191 187 184 188 159 125 177 168 160 163 164 173 179 145 145 145 129 158 160 149 157 180 194 206 214 193 176 203 171 172 187 170 154 161 116 118 235 213 163 198 237 246 307 290 263 258 269 267 256 245 221 215 231 258 270 275 279 279
207 200 168 183 197 196 200 198 188 194 202 199 203 204 201 204 205 202 200 201 206 207 219 232 196 177 173 175 176 191 204 204 126 157 158 142 173 216 170 168 169 174 159 134 143 135 105 172 176 169 183 192 189 186 138 123 145 189 191 182 185 181 176 164 127 196 216 146 177 223 226 218 255 231 229 242 240 244 256 262 255 233 226 243 252 258 268 268
203 209 172 164 195 208 207 202 194 202 206 198 194 196 198 203 205 198 198 203 202 201 218 233 197 183 178 175 175 188 199 195 123 154 166 156 139 71 161 170 170 167 153 146 158 138 105 192 189 183 196 192 146 155 137 138 169 186 176 175 180 179 178 177 200 213 162 127 228 229 204 216 235 214 219 232 223 235 254 248 242 231 219 227 245 265 271 268
209 210 169 170 185 196 200 196 191 202 210 203 194 191 195 200 202 197 195 200 200 198 208 223 205 198 184 175 176 184 187 188 170 168 168 159 136 104 150 182 184 169 156 159 178 149 139 203 197 184 191 127 77 151 158 156 174 173 169 178 179 179 183 196 216 212 163 186 234 196 172 216 227 207 222 227 209 212 224 225 220 207 214 224 241 262 265 268
208 219 177 182 194 201 202 194 189 200 209 203 199 200 198 198 200 200 191 189 201 202 200 210 208 198 186 178 177 179 180 183 187 181 172 164 158 149 153 179 226 192 166 166 186 171 163 196 190 176 168 61 44 158 159 155 161 166 179 182 176 184 194 205 219 214 193 220 235 130 185 235 223 195 219 223 208 210 220 258 171 184 222 221 222 243 252 258
199 202 187 197 217 216 215 201 191 200 207 201 202 205 199 198 199 200 194 188 195 197 198 210 207 188 183 184 184 188 188 189 190 185 176 170 169 170 172 174 184 186 178 175 180 195 201 187 162 155 147 39 358 76 101 125 154 171 187 184 184 197 204 214 223 212 205 238 242 265 289 267 224 196 222 226 179 159 189 273 224 222 229 217 220 240 246 250
216 216 204 213 222 212 217 212 194 199 208 201 201 202 201 201 198 197 200 196 193 192 195 203 203 189 183 187 191 197 196 197 198 188 176 173 168 162 170 171 162 163 175 183 172 183 206 186 121 136 163 224 252 112 101 88 97 140 200 199 199 204 208 217 221 195 208 231 230 238 267 258 189 177 215 216 148 158 212 234 236 239 232 216 224 237 239 243
217 225 218 224 229 211 212 213 200 204 207 196 195 200 201 201 196 193 199 199 197 200 198 198 198 188 182 192 199 203 199 197 196 176 158 156 144 130 124 140 158 165 168 167 154 150 159 140 119 155 174 214 217 136 127 96 74 221 227 210 202 202 205 214 220 213 217 218 205 217 238 224 154 168 193 200 190 199 223 229 227 236 233 221 223 229 235 242